^^
Station Historical Data
Daily Summary for January 10, 2018 Units:  English    Metric   Both
« Previous Day
Next Day »
Daily Weekly Monthly Yearly Custom
  High: Low: Average:
Temperature: TemperatureF °F 83.8 °F 85.4 °F
Dew Point: DewpointF °F 33.8 °F 34.6 °F
Humidity: Humidity% 14% 15%
Wind Speed: WindSpeedMPHmph -999.9mph -21.1mph
Wind Gust: WindSpeedGustMPHmph - -
Wind- -
Pressure: PressureIn in 29.51 in -
Precipitation: 0.00 in    
Historical Graphs
 
 
Tabular Data for January 10, 2018
Time Temperature Dew Point Pressure Wind Wind Speed Wind Gust Humidity Rainfall Rate (Hourly) solar Conditions
TemperatureF °F DewpointF °F PressureIn in Calm     Humidity% HourlyPrecipIn in SoftwareType W/m2 Conditions
15:45 88.2 °F 36.3 °F 29.54 in SSE 2.0 mph 5.0 mph 16% 0.00 in meteobridge W/m2
16:20 91.8 °F 37.6 °F 29.52 in SE 6.0 mph 9.0 mph 15% 0.00 in meteobridge W/m2
16:22 91.9 °F 36.0 °F 29.52 in ESE 0.9 mph 6.0 mph 14% 0.00 in meteobridge W/m2
16:24 92.1 °F 36.1 °F 29.52 in ESE 0.9 mph 5.0 mph 14% 0.00 in meteobridge W/m2
16:28 92.1 °F 36.1 °F 29.52 in SW 8.9 mph 9.0 mph 14% 0.00 in meteobridge W/m2
16:30 91.8 °F 37.6 °F 29.52 in WSW 4.9 mph 7.0 mph 15% 0.00 in meteobridge W/m2
16:32 91.6 °F 37.4 °F 29.52 in SSW 6.0 mph 6.0 mph 15% 0.00 in meteobridge W/m2
16:34 91.2 °F 35.4 °F 29.52 in SW 4.9 mph 9.0 mph 14% 0.00 in meteobridge W/m2
16:38 90.9 °F 35.1 °F 29.52 in NNW 2.0 mph 4.0 mph 14% 0.00 in meteobridge W/m2
16:42 91.8 °F 37.6 °F 29.52 in North 10.1 mph 11.0 mph 15% 0.00 in meteobridge W/m2
16:44 91.8 °F 37.6 °F 29.52 in SSE 2.9 mph 10.0 mph 15% 0.00 in meteobridge W/m2
16:46 91.8 °F 37.6 °F 29.52 in Calm   3.0 mph 15% 0.00 in meteobridge W/m2
16:48 91.6 °F 37.4 °F 29.52 in North 4.9 mph 10.0 mph 15% 0.00 in meteobridge W/m2
16:52 90.3 °F 36.3 °F 29.52 in NNW 2.9 mph 7.0 mph 15% 0.00 in meteobridge W/m2
16:54 90.1 °F 36.3 °F 29.51 in North 13.0 mph 13.0 mph 15% 0.00 in meteobridge W/m2
16:56 89.4 °F 35.6 °F 29.51 in NNW 4.0 mph 12.0 mph 15% 0.00 in meteobridge W/m2
17:00 87.4 °F 35.8 °F 29.51 in NNW 12.1 mph 16.0 mph 16% 0.00 in meteobridge W/m2
17:06 86.4 °F 34.9 °F 29.51 in NNE 4.9 mph 7.0 mph 16% 0.00 in meteobridge W/m2
17:08 86.2 °F 34.7 °F 29.51 in NNE 4.9 mph 10.0 mph 16% 0.00 in meteobridge W/m2
17:12 85.6 °F 34.3 °F 29.51 in North 6.9 mph 13.0 mph 16% 0.00 in meteobridge W/m2
17:14 85.5 °F 34.2 °F 29.51 in North 4.9 mph 8.0 mph 16% 0.00 in meteobridge W/m2
17:26 84.9 °F 35.2 °F 29.52 in NNE 0.9 mph 2.0 mph 17% 0.00 in meteobridge W/m2
17:33 85.1 °F 33.8 °F 29.52 in Calm     16% 0.00 in meteobridge W/m2
17:45 85.5 °F 34.2 °F 29.52 in Calm   3.0 mph 16% 0.00 in meteobridge W/m2
17:53 85.5 °F 35.6 °F 29.52 in NE 0.9 mph 2.0 mph 17% 0.00 in meteobridge W/m2
17:59 85.3 °F 34.0 °F 29.52 in North 4.0 mph 6.0 mph 16% 0.00 in meteobridge W/m2
18:04 84.9 °F 35.2 °F 29.52 in North 0.9 mph 4.0 mph 17% 0.00 in meteobridge W/m2
18:08 85.1 °F 35.4 °F 29.52 in North 2.0 mph 6.0 mph 17% 0.00 in meteobridge W/m2
18:14 85.3 °F 34.0 °F 29.52 in NNE 2.9 mph 4.0 mph 16% 0.00 in meteobridge W/m2
18:20 85.3 °F 35.6 °F 29.52 in NNE 2.9 mph 4.0 mph 17% 0.00 in meteobridge W/m2
18:26 85.5 °F 34.2 °F 29.52 in North 6.9 mph 8.0 mph 16% 0.00 in meteobridge W/m2
18:32 85.1 °F 33.8 °F 29.52 in Calm   4.0 mph 16% 0.00 in meteobridge W/m2
18:38 85.3 °F 35.6 °F 29.53 in ESE 0.9 mph 4.0 mph 17% 0.00 in meteobridge W/m2
18:44 84.7 °F 35.1 °F 29.53 in Calm   4.0 mph 17% 0.00 in meteobridge W/m2
18:50 84.6 °F 34.9 °F 29.54 in SE 2.9 mph 9.0 mph 17% 0.00 in meteobridge W/m2
18:57 84.2 °F 34.7 °F 29.54 in SSW 0.9 mph 7.0 mph 17% 0.00 in meteobridge W/m2
19:07 83.8 °F 34.3 °F 29.54 in SSE 10.1 mph 10.1 mph 17% 0.00 in meteobridge W/m2
19:14 83.8 °F 34.3 °F 29.54 in SSE 10.1 mph -999.0 mph 17% 0.00 in meteobridge W/m2
19:16 83.8 °F 34.3 °F 29.54 in North -999.9 mph -999.0 mph 17% 0.00 in meteobridge W/m2
Regenstein, Windhoek, Namibia
Compliments of Weather Underground - 2 mb